Location: Belloy
(55.7522°N, 118.2333°W)
Time: 23:13:17
(UTC+00:00)

Envisat - Pass Details

Date: 30 November 2021
Orbit: 764 x 766 km, 98.2° (Epoch: 27 January)

Event Time Altitude Azimuth Distance (km) Brightness Sun altitude
Rises 14:37:41 0° 11° (N) 3,250 6.1 -10.4°
Reaches altitude 10° 14:40:17 10° 359° (N) 2,319 5.3 -10.0°
Maximum altitude 14:44:30 27° 304° (NW) 1,454 3.9 -9.5°
Drops below altitude 10° 14:48:42 10° 248° (WSW) 2,307 5.1 -9.0°
Sets 14:51:18 0° 236° (WSW) 3,229 5.9 -8.6°
